STARLINK-36074, 66900

Orbit data source: Space-Track

STARLINK-36074, 66900 is a payload satellite owned by SpaceX/Seattle (US) in LEO that was launched on Thu, 04 Dec 2025 UTC via an FALCON 9 launch vehicle from the Air Force Western Test Range (AFWTR). Payload-class satellites include a variety of spacecraft equipped with specific instruments for various scientific and technological missions. These include communications satellites like Starlink; space stations such as the ISS; scientific satellites like the Hubble; Earth observation satellites from companies like Planet Labs, Umbra, and HawkEye 360; GPS; miniature CubeSats for education and research; and military/defense satellites.

Loading next visibility...
Identifier
66900, 2025-283Y
Orbit
LEO
Country
Flag of USUS
Related business
Manufacturer
SpaceX/Seattle
Mission
Operational Commercial Communications
Bus & Motor
STARLINK V2MO, Unknown motor
Mass
575 kg wet, ~530 kg dry
Launch date (UTC)
2025-12-04 (7 months ago)
Launch vehicle
FALCON 9
Launch site
Air Force Western Test Range (AFWTR)
Object type
Payload
Rocket body
Debris
Shape & HBR
Box + 2 Pan, 17.7 m
Radar Cross Section
36.964 m², Large (>1 m²)

Expand to show TLE details & history
Last TLE update: 11 hours ago

TLE from 11 hours ago
0 STARLINK-36074
1 66900U 25283Y   26171.40996904  .00030992  00000-0  92432-3 0  9995
2 66900  53.1587 266.1545 0001217  83.7868 276.3273 15.34409545 31589
Epoch: 2026-06-20T09:50Z
TLE epoch observation values (Epoch: 2026-06-20T09:50:21.325Z)
Latitude
-0.00002°
Longitude
-150.05936°
Altitude
463.484 km
Speed
7.636 km/s
True Right ascension
17h 44m 37s
True Declination
0° 00' 00"
Sunlit
Object was in full shadow at epoch
Visualization orbit readout
Latitude
Unknown
Longitude
Unknown
Altitude
Unknown
Speed
Unknown
Apparent Right ascension
Unknown
Apparent Declination
Unknown
Sunlit
N/A
Visualization observer readout
Local Sidereal Time
07:17:55
Azimuth
Unknown
Elevation
Unknown
Doppler factor
Unknown
Orbital elements
Apogee altitude
463.765 km
Perigee altitude
462.099 km
Semi-major axis
6,841.069 km
Eccentricity
0.00012
Inclination
53.1587°
RAAN
266.1545°
Arg. of periapsis
83.7868°
True anomaly
276.31344°
Mean anomaly
276.3273°
Eccentric anomaly
276.32037°
Mean motion
3.83581 °/min
Orbital period
93.85 mins
BSTAR
0.00092432
Loading maneuver chart data...
Computing Atmospheric mass density...
Loading historical data...
Loading historical data...
Loading historical data...
Loading historical data...
Loading historical data...
Loading historical data...
Loading historical data...

Documentation

Showing up to 5 results
|